Weather History for TGPY - February, 2014

Change the Weather History Date:

Tuesday, February 4, 2014

  Actual Average Record
Temperature  
Mean Temperature 78 °F -  
Max Temperature 84 °F 83 °F - ()
Min Temperature 72 °F 73 °F - ()
Cooling Degree Days 13    
Growing Degree Days 28 (Base 50)    
Moisture  
Dew Point 73 °F    
Average Humidity 85    
Maximum Humidity 100    
Minimum Humidity 66    
Precipitation  
Precipitation 0.51 in - - ()
Sea Level Pressure  
Sea Level Pressure 29.90 in    
Wind  
Wind Speed 10 mph ()    
Max Wind Speed 16 mph    
Max Gust Speed -    
Visibility 6.9 miles    
Events Rain    
T = Trace of Precipitation, MM = Missing Value Source: Averaged Metar Reports

Daily Weather History Graph

Daily Weather History Graph

Search for Another Location

Airport or City:

Trip Planner

Search our weather history database for the weather conditions in past years. The results will help you decide how hot, cold, wet, or windy it might be!

Date:

Astronomy

Feb. 04, 2014 Rise Set
Actual Time 6:31 AM AST 6:10 PM AST
Civil Twilight 6:09 AM AST 6:32 PM AST
Nautical Twilight 5:44 AM AST 6:57 PM AST
Astronomical Twilight 5:19 AM AST 7:23 PM AST
Moon 10:10 AM AST (2/4) 10:50 PM AST (2/4)
Length of Visible Light 12h 22m
Length of Day
11h 39m
Waxing Crescent, 28% of the Moon is Illuminated
Feb 4
Waxing Crescent
Feb 6
First Quarter
Feb 14
Full
Feb 22
Last Quarter
Mar 1
New

Hourly Weather History & Observations

Time (AST) Temp. Heat Index Dew Point Humidity Pressure Visibility Wind Dir Wind Speed Gust Speed Precip Events Conditions
12:00 AM 75.2 °F - 73.4 °F 94% 29.92 in 6.2 mi East 13.8 mph - N/A   Scattered Clouds
1:00 AM 73.4 °F - 73.4 °F 100% 29.92 in 6.2 mi East 11.5 mph - N/A Rain Light Rain Showers
2:00 AM 74 °F - 73 °F 96% 29.89 in 9 mi East 10.4 mph - -   Partly Cloudy
2:00 AM 75.2 °F - 73.4 °F 94% 29.89 in 6.2 mi East 10.4 mph - N/A   Scattered Clouds
3:00 AM 75.2 °F - 73.4 °F 94% 29.86 in 6.2 mi East 8.1 mph - N/A   Scattered Clouds
4:00 AM 75.2 °F - 73.4 °F 94% 29.86 in 6.2 mi East 11.5 mph - N/A   Scattered Clouds
5:00 AM 75 °F - 72 °F 88% 29.89 in 5 mi ESE 16.1 mph - - Rain Light Rain Showers
5:00 AM 75.2 °F - 71.6 °F 89% 29.89 in 5.0 mi ESE 16.1 mph - N/A Rain Rain Showers
6:00 AM 75.2 °F - 73.4 °F 94% 29.89 in 6.2 mi East 6.9 mph - N/A Rain Light Rain
7:00 AM 75.2 °F - 73.4 °F 94% 29.89 in 6.2 mi East 11.5 mph - N/A Rain Light Rain
8:00 AM 77 °F - 74 °F 86% 29.94 in 6 mi East 10.4 mph - - Rain Light Rain
8:00 AM 77.0 °F - 73.4 °F 89% 29.92 in 6.2 mi East 10.4 mph - N/A   Mostly Cloudy
9:00 AM 80.6 °F 85.4 °F 73.4 °F 79% 29.95 in 6.2 mi ESE 11.5 mph - N/A   Mostly Cloudy
10:00 AM 80.6 °F 85.4 °F 73.4 °F 79% 29.95 in 6.2 mi ESE 15.0 mph - N/A   Scattered Clouds
11:00 AM 76 °F - 74 °F 91% 29.96 in 5 mi East 10.4 mph - - Rain Light Rain Showers
11:00 AM 75.2 °F - 73.4 °F 94% 29.95 in 5.6 mi East 10.4 mph - N/A Rain Light Rain Showers
12:00 PM 75.2 °F - 73.4 °F 94% 29.92 in 5.0 mi ENE 12.7 mph - N/A Rain Light Rain Showers
1:00 PM 80.6 °F 86.2 °F 75.2 °F 84% 29.89 in 6.2 mi East 11.5 mph - N/A   Scattered Clouds
2:00 PM 83 °F - 73 °F 66% 29.88 in 12 mi East 12.7 mph - -   Widespread Dust
2:00 PM 82.4 °F 88.2 °F 73.4 °F 74% 29.89 in 6.2 mi East 12.7 mph - N/A   Scattered Clouds
3:00 PM 84.2 °F 90.9 °F 73.4 °F 70% 29.86 in 6.2 mi ESE 11.5 mph - N/A   Scattered Clouds
4:00 PM 80.6 °F 85.4 °F 73.4 °F 79% 29.86 in 6.2 mi ESE 11.5 mph - N/A   Scattered Clouds
5:00 PM 81 °F - 72 °F 67% 29.87 in 12 mi East 9.2 mph - -   Widespread Dust
5:00 PM 80.6 °F 84.6 °F 71.6 °F 74% 29.86 in 6.2 mi East 9.2 mph - N/A   Mostly Cloudy
6:00 PM 78.8 °F - 73.4 °F 83% 29.89 in 6.2 mi East 8.1 mph - N/A   Mostly Cloudy
7:00 PM 77.0 °F - 71.6 °F 83% 29.89 in 6.2 mi ESE 8.1 mph - N/A   Scattered Clouds
8:00 PM 77 °F - 72 °F 80% 29.91 in 12 mi East 11.5 mph - -   Widespread Dust
8:00 PM 77.0 °F - 71.6 °F 83% 29.89 in 6.2 mi East 11.5 mph - N/A   Scattered Clouds
9:00 PM 77.0 °F - 69.8 °F 78% 29.92 in 6.2 mi ENE 11.5 mph - N/A   Partly Cloudy
10:00 PM 77.0 °F - 69.8 °F 78% 29.92 in 6.2 mi East 5.8 mph - N/A   Scattered Clouds
11:00 PM 76 °F - 71 °F 80% 29.92 in 14 mi East 5.8 mph - -   Widespread Dust
11:00 PM 77.0 °F - 71.6 °F 83% 29.92 in 6.2 mi East 5.8 mph - N/A   Partly Cloudy